KINDAKUN POINT, BC current weather conditions

sailwx.info

Wind from 230 at 15 knots

Air temperature 9.7° C
Dewpoint 5.5° C

Last reported at 2014-Nov-22 22:00 UTC.
Time now 2014-Nov-23 00:00 UTC

Location: N 53°19' W 132°46'.
View on Google Maps.

See reports from other nearby stations

  
Tides and Currents Weather Stations Pressure Air Temp Water Temp Dewpoint Dewpoint Depression Visibility Wind Speed Wind Dir Waves Ship Positions
date/time (UTC)wind fromknots sea level pressurealtimeterstation pressurevisibilityair tempwater tempwave heightnotes
2014-Nov-22 22:00 230 15 9.7
2014-Nov-22 21:00 220 13 gusting 19 8.9
2014-Nov-22 20:00 220 12 gusting 19 9.7
2014-Nov-22 19:00 240 14 gusting 21 8.8
2014-Nov-22 18:00 230 14 9.8
2014-Nov-22 17:00 220 9 gusting 14 8.8
2014-Nov-22 16:00 230 10 9.0
2014-Nov-22 15:00 220 15 8.6
2014-Nov-22 14:00 210 11 8.2
2014-Nov-22 13:00 210 20 gusting 26 9.1
2014-Nov-22 12:00 230 14 9.0
2014-Nov-22 11:00 200 8 9.0
2014-Nov-22 10:00 260 6 7.5
2014-Nov-22 09:00 260 14 gusting 21 8.4
2014-Nov-22 08:00 270 11 9.1
2014-Nov-22 07:00 260 9 gusting 14 8.4
2014-Nov-22 06:00 240 8 9.1
2014-Nov-22 05:00 270 10 9.0
2014-Nov-22 04:00 280 15 8.8
2014-Nov-22 03:00 290 8 8.9
2014-Nov-22 02:00 290 9 8.9
2014-Nov-22 01:00 310 11 8.8
2014-Nov-22 00:00 300 9 9.1
2014-Nov-21 23:00 290 11 9.0
2014-Nov-21 22:00 290 13 9.4
2014-Nov-21 21:00 300 11 10.0
2014-Nov-21 20:00 300 8 9.0
2014-Nov-21 19:00 300 8 9.0
2014-Nov-21 18:00 290 12 9.0
2014-Nov-21 17:00 290 13 9.0
2014-Nov-21 16:00 290 12 9.0
2014-Nov-21 15:00 300 14 9.0
2014-Nov-21 14:00 300 12 9.3
2014-Nov-21 13:00 290 13 9.6
2014-Nov-21 12:00 250 9 10.0
2014-Nov-21 11:00 180 38 gusting 50 10.0
2014-Nov-21 10:00 170 33 gusting 44 10.0
2014-Nov-21 09:00 150 31 gusting 46 10.0
2014-Nov-21 08:00 150 24 gusting 34 9.2
2014-Nov-21 07:00 170 33 gusting 41 9.4
2014-Nov-21 06:00 170 22 gusting 31 9.6
2014-Nov-21 05:00 160 21 gusting 28 9.0
2014-Nov-21 04:00 180 20 gusting 27 8.9
2014-Nov-21 03:00 180 17 9.0
2014-Nov-21 02:00 210 13 8.0
2014-Nov-21 01:00 240 10 9.0
2014-Nov-21 00:00 250 8 9.2